Flag for Poland Weather past 2 weeks in Grudziądz, Poland

Now
73 °F

Passing clouds.


Feels Like: 77 °F
Forecast: 53 / 73 °F
Wind: 5 mph from Southeast

Location: Torun

Current Time: Sep 18, 2014 at 4:45:24 PM

Latest Report: Sep 18, 2014 at 4:00 PM


Visibility: 16 mi

Pressure: 30.09 "Hg

Humidity: 40%

Dew point: 47 °F

Location of GrudziądzLocation

Historic Weather in Grudziądz — Graph

°F

Grudziądz temperature yesterday

Maximum temperature yesterday: 71 °F (at 4:00 PM)
Minimum temperature yesterday: 49 °F (at 6:00 AM)
Average temperature yesterday: 59 °F

Past Weeks' High & Low Weather Summary

 TemperatureHumidityPressure
High81 °F (Sep 14, 3:00 PM)100% (Sep 9, 12:00 AM)30.34 "Hg (Sep 9, 12:00 AM)
Low44 °F (Sep 6, 5:00 AM)32% (Sep 14, 4:00 PM)29.93 "Hg (Sep 7, 5:00 PM)
Average63 °F69%30.10 "Hg
* Reported Sep 3 3:00 PM — Sep 18 3:00 PM, Grudziądz, Weather by CustomWeather, © 2014

Note: Actual official high and low records may vary slightly from our data, if they occured in-between our weather recording intervals... More about our weather records

Advertising

Grudziądz weather history for previous 24 hours

 ConditionsComfort  
Time TempWeatherWind HumidityBarometerVisibility
3:00 PM
Sep 18
74 °FPassing clouds.5 mph34%30.09 "Hg19 mi
2:00 PM73 °FSunny.5 mph34%30.10 "Hg19 mi
1:00 PM72 °FSunny.6 mph35%30.11 "Hg14 mi
12:00 PM70 °FSunny.5 mph40%30.13 "Hg16 mi
11:00 AM66 °FSunny.3 mph50%30.14 "Hg16 mi
10:00 AM62 °FSunny.3 mph59%30.16 "Hg9 mi
9:00 AM57 °FSunny.3 mph71%30.16 "Hg10 mi
8:00 AM52 °FFog.2 mph80%30.16 "Hg4 mi
7:00 AM48 °FSunny.2 mph86%30.16 "Hg6 mi
6:00 AM48 °FClear.2 mph87%30.16 "Hg7 mi
5:00 AM49 °FClear.2 mph85%30.16 "Hg7 mi
4:00 AM50 °FClear.2 mph83%30.16 "Hg7 mi
3:00 AM51 °FClear.2 mph82%30.16 "Hg8 mi
2:00 AM52 °FClear.2 mph80%30.17 "Hg9 mi
1:00 AM53 °FClear.2 mph77%30.17 "Hg11 mi
12:00 AM54 °FClear.2 mph73%30.17 "Hg11 mi
11:00 PM
Sep 17
56 °FClear.2 mph70%30.18 "Hg12 mi
10:00 PM57 °FClear.2 mph67%30.18 "Hg11 mi
9:00 PM58 °FClear.2 mph69%30.18 "Hg9 mi
8:00 PM59 °FClear.1 mph61%30.17 "Hg12 mi
7:00 PM66 °FPassing clouds.3 mph48%30.16 "Hg19 mi
6:00 PM69 °FPassing clouds.3 mph42%30.15 "Hg25 mi
5:00 PM71 °FPassing clouds.5 mph40%30.15 "Hg22 mi
4:00 PM71 °FPassing clouds.5 mph37%30.15 "Hg17 mi
Weather by CustomWeather, © 2014

See weather overviewHow to use our weather pages